Feedback
Home > Rebate Center > Cooking > Range Hoods > Rebate Center: Hood Range Hoods > Type: Hood
Expand Your Results
Remove Type:
Hood
Refine Your Results

Technical Details

Energy Star Rated

Yes (2)
No (194)

Voltage

Approved for Outdoor Use

Yes (1)
No (199)

Filters

Are You a
Builder?

Contact us for
special pricing & volume discounts
Get Quote

Rebate Center: Hood Range Hoods

Sort:
Displaying 61 - 80 of 202 Products
20 40 50 products per page
1 2 3 4 5 6 7

Prizer Hoods Laramie Series LARA

Wall Mount Chimney Range Hood with Optional Blowers, 3-Speed Fan Control, High-Heat Sensor, Halogen Lights, Handcrafted 16 Gauge Material and Baffle Filters

LARA30SS 30" Width, Brushed Stainless Steel 01/01/2016 - 12/31/2016 Save $500 Download
LARA36SS 36" Width, Brushed Stainless Steel 01/01/2016 - 12/31/2016 Save $500 Download
LARA42SS 42" Width, Brushed Stainless Steel 01/01/2016 - 12/31/2016 Save $500 Download
LARA48SS 48" Width, Brushed Stainless Steel 01/01/2016 - 12/31/2016 Save $500 Download
LARA54SS 54" Width, Brushed Stainless Steel 01/01/2016 - 12/31/2016 Save $500 Download
LARA60SS 60" Width, Brushed Stainless Steel 01/01/2016 - 12/31/2016 Save $500 Download
LARA66SS 66" Width, Brushed Stainless Steel 01/01/2016 - 12/31/2016 Save $500 Download

BlueStar Manhattan Series BSMNHTTNBB

Brushed Brass Wall Mount Hood with 3-Speed Blower Options, Hidden Controls, Baffle Filters, Halogen Lamps and Top Discharge

BSMANH24BB 24" Width 01/01/2016 - 12/31/2016 Save $500 Download
BSMANH30BB 30" Width 01/01/2016 - 12/31/2016 Save $500 Download
BSMANH36BB 36" Width 01/01/2016 - 12/31/2016 Save $500 Download
BSMANH42BB 42" Width 01/01/2016 - 12/31/2016 Save $500 Download
BSMANH48BB 48" Width 01/01/2016 - 12/31/2016 Save $500 Download
BSMANH54BB 54" Width 01/01/2016 - 12/31/2016 Save $500 Download
BSMANH60BB 60" Width 01/01/2016 - 12/31/2016 Save $500 Download
BSMANH66BB 66" Width 01/01/2016 - 12/31/2016 Save $500 Download

BlueStar City Living Low Profile Series BSLOWPROFILE

Wall Mount Hood with 3-Speed 600 CFM Internal Blower, Stainless Steel Construction, 750 Color Options, Hidden Controls, Dishwasher-Safe Filters, Dimming Halogen Lamps and Reversible Top/Rear Exhaust

BSLPL24240 24" Width 01/01/2016 - 12/31/2016 Save $500 Download
BSLPL30240 30" Width 01/01/2016 - 12/31/2016 Save $500 Download
BSLPL36240 36" Width 01/01/2016 - 12/31/2016 Save $500 Download

Prizer Hoods Crescent Series CRES

Wall Mount Chimney Range Hood with Optional Blowers, 3-Speed Fan Control, High-Heat Sensor, Halogen Lights, Handcrafted 16 Gauge Material and Baffle Filters

CRES30SS 30" Width, Brushed Stainless Steel 01/01/2016 - 12/31/2016 Save $500 Download
CRES36SS 36" Width, Brushed Stainless Steel 01/01/2016 - 12/31/2016 Save $500 Download
CRES42SS 42" Width, Brushed Stainless Steel 01/01/2016 - 12/31/2016 Save $500 Download
CRES48SS 48" Width, Brushed Stainless Steel 01/01/2016 - 12/31/2016 Save $500 Download
CRES54SS 54" Width, Brushed Stainless Steel 01/01/2016 - 12/31/2016 Save $500 Download
CRES60SS 60" Width, Brushed Stainless Steel 01/01/2016 - 12/31/2016 Save $500 Download

Prizer Hoods Rectangular Series RECT

Wall Mount Chimney Range Hood with Optional Blowers, 3-Speed Fan Control, High-Heat Sensor, Halogen Lights, Handcrafted 16 Gauge Material and Baffle Filters

RECT48SS 48" Width, Brushed Stainless Steel 01/01/2016 - 12/31/2016 Save $500 Download
RECT54SS 54" Width, Brushed Stainless Steel 01/01/2016 - 12/31/2016 Save $500 Download
RECT60SS 60" Width, Brushed Stainless Steel 01/01/2016 - 12/31/2016 Save $500 Download

BlueStar Manhattan Series BSMNHTTNBC

Brushed Copper Wall Mount Hood with 3-Speed Blower Options, Hidden Controls, Baffle Filters, Halogen Lamps and Top Discharge

BSMANH24BC 24" Width 01/01/2016 - 12/31/2016 Save $500 Download
BSMANH30BC 30" Width 01/01/2016 - 12/31/2016 Save $500 Download
BSMANH36BC 36" Width 01/01/2016 - 12/31/2016 Save $500 Download
BSMANH42BC 42" Width 01/01/2016 - 12/31/2016 Save $500 Download
BSMANH48BC 48" Width 01/01/2016 - 12/31/2016 Save $500 Download
BSMANH54BC 54" Width 01/01/2016 - 12/31/2016 Save $500 Download
BSMANH60BC 60" Width 01/01/2016 - 12/31/2016 Save $500 Download
BSMANH66BC 66" Width 01/01/2016 - 12/31/2016 Save $500 Download

Prizer Hoods Wrangler Series WRAN

Wall Mount Chimney Range Hood with Optional Blowers, 3-Speed Fan Control, High-Heat Sensor, Halogen Lights, Handcrafted 16 Gauge Material and Baffle Filters

WRAN30SS 30" Width, Brushed Stainless Steel 01/01/2016 - 12/31/2016 Save $500 Download
WRAN36SS 36" Width, Brushed Stainless Steel 01/01/2016 - 12/31/2016 Save $500 Download
WRAN42SS 42" Width, Brushed Stainless Steel 01/01/2016 - 12/31/2016 Save $500 Download
WRAN48SS 48" Width, Brushed Stainless Steel 01/01/2016 - 12/31/2016 Save $500 Download
WRAN54SS 54" Width, Brushed Stainless Steel 01/01/2016 - 12/31/2016 Save $500 Download
WRAN60SS 60" Width, Brushed Stainless Steel 01/01/2016 - 12/31/2016 Save $500 Download
WRAN66SS 66" Width, Brushed Stainless Steel 01/01/2016 - 12/31/2016 Save $500 Download

BlueStar Low Profile Recirculating Series BSLPRECIRC

Wall Mount Hood with Recirculating 4-Speed 520 CFM Internal Blower, Stainless Steel Construction, 750 Color Options, Hidden Controls, Dishwasher-Safe Filters and Dimming Halogen Lamps

BSLPLR24240 24" Width 01/01/2016 - 12/31/2016 Save $500 Download
BSLPLR30240 30" Width 01/01/2016 - 12/31/2016 Save $500 Download
BSLPLR36240 36" Width 01/01/2016 - 12/31/2016 Save $500 Download

Prizer Hoods Incline Series INCL

Wall Mount Canopy Range Hood with Optional Blowers, 3-Speed Fan Control, High-Heat Sensor, Halogen Lights, Handcrafted 16 Gauge Material and Baffle Filters

INCL30SS 30" Width, Brushed Stainless Steel 01/01/2016 - 12/31/2016 Save $500 Download
INCL36SS 36" Width, Brushed Stainless Steel 01/01/2016 - 12/31/2016 Save $500 Download
INCL42SS 42" Width, Brushed Stainless Steel 01/01/2016 - 12/31/2016 Save $500 Download
INCL48SS 48" Width, Brushed Stainless Steel 01/01/2016 - 12/31/2016 Save $500 Download
INCL54SS 54" Width, Brushed Stainless Steel 01/01/2016 - 12/31/2016 Save $500 Download
INCL60SS 60" Width, Brushed Stainless Steel 01/01/2016 - 12/31/2016 Save $500 Download
INCL66SS 66" Width, Brushed Stainless Steel 01/01/2016 - 12/31/2016 Save $500 Download

Wolf PI3418

Island Chimney Range Hood with Infinite-Speed Blower Control, Automatic Heat Sentry, Halogen Lights, Baffle Filters and Recessed Controls

PI363418 36" Width 07/01/2016 - 03/31/2017 Receive a $1,000 Rebate or Free Wolf Gourmet Products Download
PI423418 42" Width 07/01/2016 - 03/31/2017 Receive a $1,000 Rebate or Free Wolf Gourmet Products Download
PI543418 54" Width 07/01/2016 - 03/31/2017 Receive a $1,000 Rebate or Free Wolf Gourmet Products Download
PI663418 66" Width 07/01/2016 - 03/31/2017 Receive a $1,000 Rebate or Free Wolf Gourmet Products Download

BlueStar Laramie Series BSLARAMIEIBB

Brushed Brass Island Hood with 3-Speed Blower Options, Hidden Controls, Baffle Filters and Halogen Lamps

BSLARAI30BB 30" Width 01/01/2016 - 12/31/2016 Save $500 Download
BSLARAI36BB 36" Width 01/01/2016 - 12/31/2016 Save $500 Download
BSLARAI42BB 42" Width 01/01/2016 - 12/31/2016 Save $500 Download
BSLARAI48BB 48" Width 01/01/2016 - 12/31/2016 Save $500 Download
BSLARAI54BB 54" Width 01/01/2016 - 12/31/2016 Save $500 Download
BSLARAI60BB 60" Width 01/01/2016 - 12/31/2016 Save $500 Download
BSLARAI66BB 66" Width 01/01/2016 - 12/31/2016 Save $500 Download

Monogram ZV925SLSS

36 Inch Island Chimney Range Hood with 570 CFM Internal Blower, 4-Speed Fan, Touch Controls, LCD Display, Glass Canopy and Convertible to Recirculating

ZV925SLSS Stainless Steel 01/01/2016 - 12/31/2016 Save Up To $3,798 Download

Prizer Hoods Hampton Series HAMP

Wall Mount Chimney Range Hood with Optional Blowers, 3-Speed Fan Control, High-Heat Sensor, Halogen Lights, Handcrafted 16 Gauge Material and Baffle Filters

HAMP30SS 30" Width, Brushed Stainless Steel 01/01/2016 - 12/31/2016 Save $500 Download
HAMP36SS 36" Width, Brushed Stainless Steel 01/01/2016 - 12/31/2016 Save $500 Download
HAMP42SS 42" Width, Brushed Stainless Steel 01/01/2016 - 12/31/2016 Save $500 Download
HAMP48SS 48" Width, Brushed Stainless Steel 01/01/2016 - 12/31/2016 Save $500 Download
HAMP54SS 54" Width, Brushed Stainless Steel 01/01/2016 - 12/31/2016 Save $500 Download
HAMP60SS 60" Width, Brushed Stainless Steel 01/01/2016 - 12/31/2016 Save $500 Download
HAMP66SS 66" Width, Brushed Stainless Steel 01/01/2016 - 12/31/2016 Save $500 Download

BlueStar Laredo Series BSLAREDOBC

Brushed Copper Wall Mount Hood with 3-Speed Blower Options, Hidden Controls, Baffle Filters, Halogen Lamps and Reversible Top/Rear Exhaust

BSLARE30BC 30" Width 01/01/2016 - 12/31/2016 Save $500 Download
BSLARE36BC 36" Width 01/01/2016 - 12/31/2016 Save $500 Download
BSLARE42BC 42" Width 01/01/2016 - 12/31/2016 Save $500 Download
BSLARE48BC 48" Width 01/01/2016 - 12/31/2016 Save $500 Download
BSLARE54BC 54" Width 01/01/2016 - 12/31/2016 Save $500 Download
BSLARE60BC 60" Width 01/01/2016 - 12/31/2016 Save $500 Download
BSLARE66BC 66" Width 01/01/2016 - 12/31/2016 Save $500 Download

Prizer Hoods Crescent Series CRESI

Island Chimney Range Hood with Optional Blowers, 3-Speed Fan Control, High-Heat Sensor, Halogen Lights, Handcrafted 16 Gauge Material and Baffle Filters

CRESI36SS 36" Width, Brushed Stainless Steel 01/01/2016 - 12/31/2016 Save $500 Download
CRESI42SS 42" Width, Brushed Stainless Steel 01/01/2016 - 12/31/2016 Save $500 Download
CRESI48SS 48" Width, Brushed Stainless Steel 01/01/2016 - 12/31/2016 Save $500 Download
CRESI54SS 54" Width, Brushed Stainless Steel 01/01/2016 - 12/31/2016 Save $500 Download
CRESI60SS 60" Width, Brushed Stainless Steel 01/01/2016 - 12/31/2016 Save $500 Download

Prizer Hoods Rectangular Series RECTI

Island Chimney Range Hood with Optional Blowers, 3-Speed Fan Control, High-Heat Sensor, Halogen Lights, Handcrafted 16 Gauge Material and Baffle Filters

RECTI48SS 48" Width, Brushed Stainless Steel 01/01/2016 - 12/31/2016 Save $500 Download
RECTI54SS 54" Width, Brushed Stainless Steel 01/01/2016 - 12/31/2016 Save $500 Download
RECTI60SS 60" Width, Brushed Stainless Steel 01/01/2016 - 12/31/2016 Save $500 Download

Viking Professional 5 Series VCWH56048

60 Inch Wall Mount Chimney Range Hood with Optional Blowers, Variable Fan Speeds, Heat Sensor, Heat Lamps, LED Lighting, LED Knobs and Commercial-Type Filters

VCWH56048SS Stainless Steel 09/01/2016 - 12/31/2016 Instant Savings of up to $1,579 Download
VCWH56048AR Apple Red 09/01/2016 - 12/31/2016 Instant Savings of up to $1,579 Download
VCWH56048BK Black 09/01/2016 - 12/31/2016 Instant Savings of up to $1,579 Download
VCWH56048BU Burgundy 09/01/2016 - 12/31/2016 Instant Savings of up to $1,579 Download
VCWH56048CB Cobalt Blue 09/01/2016 - 12/31/2016 Instant Savings of up to $1,579 Download
VCWH56048GG Graphite Gray 09/01/2016 - 12/31/2016 Instant Savings of up to $1,579 Download
VCWH56048WH White 09/01/2016 - 12/31/2016 Instant Savings of up to $1,579 Download

Prizer Hoods Laramie Series LARAI

Island Chimney Range Hood with Optional Blowers, 3-Speed Fan Control, High-Heat Sensor, Halogen Lights, Handcrafted 16 Gauge Material and Baffle Filters

LARAI30SS 30" Width, Brushed Stainless Steel 01/01/2016 - 12/31/2016 Save $500 Download
LARAI36SS 36" Width, Brushed Stainless Steel 01/01/2016 - 12/31/2016 Save $500 Download
LARAI42SS 42" Width, Brushed Stainless Steel 01/01/2016 - 12/31/2016 Save $500 Download
LARAI48SS 48" Width, Brushed Stainless Steel 01/01/2016 - 12/31/2016 Save $500 Download
LARAI54SS 54" Width, Brushed Stainless Steel 01/01/2016 - 12/31/2016 Save $500 Download
LARAI60SS 60" Width, Brushed Stainless Steel 01/01/2016 - 12/31/2016 Save $500 Download
LARAI66SS 66" Width, Brushed Stainless Steel 01/01/2016 - 12/31/2016 Save $500 Download

Monogram ZVRSFSS

Professional Restaurant-Style Wall Mount Canopy Range Hood with Internal Blower, 4-Speed Fan, Infrared Warming Lamps, Warming Shelf, Backsplash and Grease Tray

ZV36RSFSS 36 in. Width with 640 CFM 01/01/2016 - 12/31/2016 Save Up To $3,798 Download
ZV48RSFSS 48 in. Width with 1200 CFM 01/01/2016 - 12/31/2016 Save Up To $3,798 Download

Prizer Hoods Casino Royale Series CSNOI

Island Chimney Range Hood with Optional Blowers, 3-Speed Fan Control, High-Heat Sensor, Halogen Lights, Handcrafted 16 Gauge Material and Baffle Filters

CSNOI36SS 36" Width, Brushed Stainless Steel 01/01/2016 - 12/31/2016 Save $500 Download
CSNOI42SS 42" Width, Brushed Stainless Steel 01/01/2016 - 12/31/2016 Save $500 Download
CSNOI48SS 48" Width, Brushed Stainless Steel 01/01/2016 - 12/31/2016 Save $500 Download
CSNOI54SS 54" Width, Brushed Stainless Steel 01/01/2016 - 12/31/2016 Save $500 Download
CSNOI60SS 60" Width, Brushed Stainless Steel 01/01/2016 - 12/31/2016 Save $500 Download
Sort:
Displaying 61 - 80 of 202 Products
20 40 50 products per page
1 2 3 4 5 6 7